QPF
0.01 0.01 0.00 0.00 0.00 0.00 0.01 0.01 0.02 0.03 0.03 0.02 0.02 0.02 0.03 0.04 0.02 0.01 0.02 0.05 0.04 0.05 0.05 0.04 0.03 0.03 0.03 0.03 0.01 0.01 0.01 0.01 0.01 0.01 0.02 0.01 0.01 0.01 0.01 0.01 0.01 0.01 0.01
0.01 0.01 0.01 0.01 0.01 0.01 0.01 0.02 0.02 0.02 0.04 0.03 0.03 0.03 0.03 0.04 0.02 0.01 0.02 0.04 0.05 0.04 0.05 0.06 0.04 0.03 0.03 0.04 0.03 0.03 0.02 0.01 0.01 0.01 0.01 0.01 0.02 0.02 0.01 0.01 0.01 0.00 0.01
0.01 0.01 0.01 0.01 0.01 0.01 0.01 0.03 0.03 0.02 0.03 0.04 0.03 0.03 0.04 0.04 0.03 0.02 0.02 0.03 0.04 0.05 0.05 0.07 0.09 0.06 0.05 0.05 0.04 0.04 0.04 0.02 0.02 0.01 0.01 0.01 0.01 0.01 0.01 0.01 0.01 0.00 0.00
0.01 0.01 0.01 0.01 0.01 0.01 0.01 0.03 0.03 0.02 0.02 0.04 0.04 0.04 0.05 0.04 0.03 0.03 0.02 0.02 0.03 0.04 0.06 0.08 0.10 0.10 0.10 0.08 0.06 0.06 0.05 0.05 0.04 0.03 0.01 0.01 0.01 0.01 0.01 0.01 0.01 0.01 0.00
0.02 0.01 0.01 0.01 0.02 0.01 0.02 0.03 0.04 0.03 0.03 0.03 0.03 0.03 0.04 0.05 0.04 0.03 0.03 0.03 0.02 0.02 0.03 0.06 0.09 0.09 0.09 0.11 0.11 0.10 0.08 0.06 0.05 0.04 0.04 0.03 0.02 0.01 0.00 0.00 0.00 0.00 0.00
0.02 0.03 0.02 0.02 0.01 0.01 0.01 0.01 0.02 0.03 0.02 0.02 0.03 0.03 0.03 0.04 0.04 0.04 0.04 0.02 0.02 0.02 0.02 0.02 0.04 0.05 0.09 0.13 0.15 0.15 0.13 0.10 0.08 0.07 0.06 0.04 0.03 0.02 0.02 0.01 0.01 0.01 0.01
0.03 0.03 0.03 0.02 0.01 0.01 0.01 0.01 0.01 0.01 0.01 0.01 0.02 0.02 0.02 0.02 0.03 0.02 0.04 0.04 0.03 0.03 0.02 0.02 0.01 0.01 0.03 0.06 0.10 0.12 0.13 0.14 0.14 0.11 0.08 0.07 0.06 0.05 0.04 0.03 0.02 0.02 0.02
0.06 0.05 0.04 0.03 0.02 0.02 0.01 0.01 0.01 0.01 0.00 0.00 0.01 0.01 0.01 0.01 0.01 0.01 0.02 0.04 0.04 0.03 0.02 0.01 0.01 0.02 0.01 0.01 0.02 0.05 0.08 0.11 0.15 0.14 0.10 0.09 0.09 0.08 0.07 0.06 0.04 0.03 0.02
0.06 0.06 0.03 0.02 0.03 0.02 0.01 0.01 0.01 0.01 0.00 0.00 0.00 0.00 0.00 0.00 0.00 0.01 0.01 0.01 0.02 0.01 0.01 0.01 0.01 0.01 0.01 0.01 0.01 0.02 0.04 0.06 0.09 0.13 0.13 0.10 0.08 0.07 0.08 0.07 0.07 0.06 0.06
0.06 0.05 0.04 0.03 0.03 0.02 0.01 0.01 0.01 0.01 0.01 0.00 0.00 0.00 0.00 0.00 0.00 0.00 0.00 0.01 0.00 0.00 0.00 0.01 0.01 0.01 0.00 0.00 0.01 0.01 0.01 0.02 0.04 0.07 0.09 0.08 0.07 0.06 0.05 0.05 0.06 0.07 0.07
0.06 0.04 0.04 0.04 0.04 0.02 0.02 0.01 0.01 0.02 0.01 0.01 0.00 0.00 0.00 0.00 0.00 0.00 0.01 0.01 0.00 0.00 0.00 0.00 0.00 0.00 0.01 0.00 0.01 0.01 0.01 0.01 0.01 0.02 0.03 0.05 0.06 0.05 0.05 0.05 0.05 0.06 0.06
0.04 0.03 0.04 0.04 0.04 0.03 0.02 0.02 0.01 0.01 0.01 0.01 0.00 0.00 0.00 0.00 0.00 0.00 0.00 0.01 0.01 0.00 0.00 0.00 0.00 0.00 0.00 0.00 0.00 0.00 0.01 0.00 0.01 0.01 0.01 0.01 0.03 0.04 0.04 0.05 0.05 0.05 0.05
0.03 0.03 0.03 0.03 0.04 0.04 0.03 0.02 0.01 0.01 0.01 0.01 0.01 0.00 0.00 0.00 0.00 0.00 0.01 0.01 0.01 0.00 0.00 0.00 0.00 0.00 0.00 0.00 0.01 0.01 0.01 0.01 0.01 0.00 0.00 0.00 0.01 0.02 0.02 0.03 0.04 0.04 0.05
0.03 0.03 0.03 0.03 0.03 0.03 0.03 0.03 0.02 0.02 0.01 0.01 0.01 0.00 0.01 0.01 0.01 0.00 0.00 0.00 0.00 0.00 0.00 0.00 0.00 0.00 0.00 0.01 0.01 0.01 0.01 0.01 0.01 0.01 0.01 0.01 0.01 0.01 0.01 0.01 0.01 0.01 0.01
0.04 0.04 0.02 0.02 0.02 0.02 0.02 0.02 0.02 0.01 0.01 0.01 0.01 0.01 0.00 0.01 0.01 0.00 0.00 0.00 0.00 0.00 0.00 0.00 0.00 0.00 0.00 0.01 0.01 0.01 0.01 0.01 0.01 0.01 0.01 0.01 0.01 0.01 0.01 0.01 0.01 0.00 0.00
0.05 0.04 0.03 0.02 0.01 0.02 0.02 0.02 0.02 0.01 0.01 0.01 0.01 0.01 0.01 0.01 0.00 0.00 0.00 0.00 0.00 0.00 0.00 0.00 0.00 0.00 0.00 0.00 0.00 0.01 0.01 0.01 0.01 0.02 0.02 0.02 0.02 0.01 0.01 0.01 0.00 0.00 0.00
0.07 0.06 0.04 0.02 0.02 0.02 0.02 0.02 0.02 0.02 0.01 0.01 0.01 0.00 0.00 0.00 0.00 0.00 0.00 0.00 0.00 0.00 0.00 0.00 0.00 0.00 0.00 0.00 0.00 0.01 0.01 0.01 0.02 0.02 0.02 0.02 0.01 0.01 0.01 0.01 0.01 0.01 0.01
0.10 0.09 0.07 0.06 0.05 0.03 0.02 0.02 0.02 0.02 0.02 0.02 0.01 0.01 0.01 0.01 0.00 0.00 0.00 0.00 0.00 0.00 0.00 0.00 0.00 0.00 0.00 0.00 0.00 0.01 0.01 0.02 0.02 0.02 0.02 0.02 0.02 0.02 0.02 0.02 0.01 0.01 0.01
0.10 0.12 0.12 0.10 0.09 0.07 0.05 0.06 0.05 0.04 0.03 0.03 0.02 0.02 0.02 0.01 0.02 0.02 0.01 0.00 0.00 0.00 0.00 0.00 0.00 0.00 0.00 0.00 0.00 0.00 0.01 0.01 0.01 0.01 0.01 0.01 0.01 0.01 0.01 0.01 0.01 0.01 0.01
0.11 0.11 0.12 0.10 0.08 0.07 0.06 0.06 0.06 0.05 0.05 0.05 0.05 0.04 0.03 0.03 0.03 0.03 0.02 0.01 0.01 0.01 0.00 0.00 0.00 0.00 0.00 0.00 0.00 0.00 0.00 0.00 0.01 0.01 0.01 0.01 0.01 0.01 0.01 0.01 0.01 0.01 0.01
0.14 0.12 0.11 0.09 0.07 0.07 0.08 0.08 0.08 0.09 0.10 0.09 0.08 0.06 0.04 0.03 0.02 0.01 0.01 0.01 0.01 0.01 0.01 0.01 0.00 0.00 0.00 0.00 0.00 0.00 0.00 0.00 0.00 0.00 0.00 0.01 0.01 0.01 0.01 0.01 0.01 0.01 0.01
0.15 0.12 0.11 0.11 0.10 0.12 0.13 0.13 0.13 0.13 0.13 0.12 0.08 0.05 0.03 0.02 0.02 0.02 0.02 0.01 0.01 0.01 0.00 0.00 0.00 0.00 0.00 0.00 0.00 0.00 0.00 0.00 0.00 0.00 0.00 0.00 0.00 0.00 0.00 0.00 0.00 0.00 0.00
0.13 0.11 0.10 0.09 0.08 0.08 0.08 0.08 0.07 0.07 0.08 0.07 0.05 0.03 0.02 0.02 0.02 0.01 0.01 0.01 0.00 0.00 0.00 0.00 0.00 0.00 0.00 0.00 0.00 0.00 0.00 0.00 0.00 0.00 0.00 0.00 0.00 0.00 0.00 0.00 0.00 0.00 0.00
0.09 0.08 0.07 0.07 0.05 0.05 0.04 0.03 0.03 0.03 0.03 0.03 0.02 0.02 0.02 0.02 0.01 0.01 0.01 0.01 0.00 0.00 0.00 0.00 0.00 0.00 0.00 0.00 0.00 0.00 0.00 0.00 0.00 0.01 0.01 0.01 0.00 0.00 0.00 0.00 0.01 0.01 0.01
0.07 0.06 0.06 0.05 0.04 0.03 0.03 0.02 0.02 0.01 0.02 0.02 0.01 0.01 0.01 0.01 0.01 0.01 0.01 0.01 0.01 0.00 0.00 0.00 0.00 0.00 0.00 0.00 0.00 0.00 0.00 0.00 0.00 0.00 0.00 0.00 0.00 0.00 0.00 0.00 0.00 0.00 0.00
0.10 0.08 0.07 0.05 0.03 0.03 0.02 0.02 0.01 0.01 0.01 0.01 0.01 0.01 0.01 0.01 0.00 0.00 0.00 0.00 0.00 0.00 0.00 0.00 0.00 0.00 0.00 0.00 0.00 0.00 0.00 0.00 0.00 0.00 0.00 0.00 0.00 0.00 0.00 0.00 0.00 0.00 0.00
MSLP
1017.05 1017.27 1017.44 1017.57 1017.69 1017.82 1017.97 1018.15 1018.35 1018.56 1018.76 1018.95 1019.11 1019.26 1019.41 1019.57 1019.76 1019.97 1020.22 1020.49 1020.77 1021.04 1021.30 1021.53 1021.73 1021.91 1022.07 1022.22 1022.37 1022.51 1022.66 1022.80 1022.94 1023.07 1023.21 1023.35 1023.49 1023.65 1023.80 1023.96 1024.11 1024.25 1024.36
1017.07 1017.29 1017.46 1017.62 1017.77 1017.92 1018.10 1018.30 1018.53 1018.77 1019.00 1019.21 1019.40 1019.56 1019.71 1019.85 1020.00 1020.16 1020.36 1020.57 1020.81 1021.06 1021.31 1021.54 1021.76 1021.96 1022.14 1022.29 1022.43 1022.55 1022.67 1022.78 1022.90 1023.02 1023.15 1023.30 1023.46 1023.63 1023.80 1023.97 1024.13 1024.27 1024.38
1016.98 1017.21 1017.41 1017.61 1017.81 1018.02 1018.24 1018.48 1018.73 1019.00 1019.25 1019.49 1019.69 1019.86 1020.01 1020.12 1020.23 1020.34 1020.47 1020.62 1020.80 1021.00 1021.22 1021.45 1021.67 1021.88 1022.07 1022.24 1022.38 1022.49 1022.60 1022.70 1022.80 1022.91 1023.04 1023.19 1023.37 1023.55 1023.74 1023.92 1024.09 1024.23 1024.34
1016.79 1017.04 1017.29 1017.55 1017.81 1018.08 1018.35 1018.64 1018.92 1019.21 1019.48 1019.73 1019.94 1020.12 1020.25 1020.35 1020.42 1020.48 1020.55 1020.63 1020.74 1020.88 1021.06 1021.26 1021.48 1021.70 1021.90 1022.08 1022.23 1022.35 1022.46 1022.55 1022.65 1022.76 1022.89 1023.04 1023.22 1023.41 1023.61 1023.80 1023.97 1024.11 1024.23
1016.52 1016.80 1017.10 1017.43 1017.77 1018.10 1018.43 1018.75 1019.06 1019.35 1019.63 1019.88 1020.10 1020.28 1020.41 1020.50 1020.55 1020.58 1020.59 1020.61 1020.66 1020.74 1020.87 1021.04 1021.24 1021.45 1021.66 1021.85 1022.02 1022.15 1022.27 1022.36 1022.46 1022.57 1022.70 1022.86 1023.03 1023.22 1023.41 1023.60 1023.76 1023.91 1024.03
1016.22 1016.52 1016.88 1017.27 1017.68 1018.07 1018.45 1018.80 1019.12 1019.41 1019.69 1019.94 1020.16 1020.34 1020.49 1020.58 1020.63 1020.63 1020.62 1020.60 1020.60 1020.63 1020.71 1020.84 1021.01 1021.20 1021.41 1021.60 1021.77 1021.92 1022.04 1022.14 1022.24 1022.35 1022.48 1022.63 1022.80 1022.98 1023.16 1023.33 1023.49 1023.62 1023.73
1015.91 1016.23 1016.63 1017.09 1017.55 1018.00 1018.41 1018.78 1019.11 1019.40 1019.66 1019.90 1020.13 1020.33 1020.49 1020.61 1020.67 1020.69 1020.67 1020.63 1020.60 1020.59 1020.62 1020.70 1020.83 1020.99 1021.17 1021.35 1021.51 1021.65 1021.78 1021.88 1021.99 1022.10 1022.22 1022.37 1022.53 1022.69 1022.85 1023.00 1023.14 1023.26 1023.36
1015.63 1015.97 1016.41 1016.90 1017.41 1017.90 1018.34 1018.72 1019.04 1019.32 1019.58 1019.82 1020.05 1020.27 1020.47 1020.63 1020.73 1020.77 1020.77 1020.72 1020.67 1020.63 1020.61 1020.64 1020.71 1020.82 1020.95 1021.10 1021.24 1021.36 1021.47 1021.58 1021.68 1021.79 1021.92 1022.06 1022.21 1022.36 1022.50 1022.63 1022.74 1022.84 1022.93
1015.42 1015.77 1016.22 1016.74 1017.28 1017.79 1018.24 1018.63 1018.95 1019.22 1019.47 1019.72 1019.97 1020.22 1020.46 1020.66 1020.81 1020.89 1020.91 1020.88 1020.81 1020.73 1020.67 1020.64 1020.64 1020.69 1020.76 1020.84 1020.93 1021.02 1021.11 1021.20 1021.30 1021.42 1021.55 1021.69 1021.84 1021.99 1022.12 1022.23 1022.33 1022.40 1022.47
1015.29 1015.63 1016.10 1016.63 1017.17 1017.69 1018.14 1018.53 1018.85 1019.12 1019.38 1019.64 1019.91 1020.19 1020.47 1020.72 1020.91 1021.03 1021.08 1021.05 1020.97 1020.87 1020.76 1020.66 1020.59 1020.55 1020.54 1020.56 1020.59 1020.63 1020.68 1020.76 1020.85 1020.97 1021.12 1021.28 1021.44 1021.60 1021.73 1021.84 1021.91 1021.97 1022.02
1015.22 1015.56 1016.02 1016.55 1017.09 1017.60 1018.05 1018.43 1018.75 1019.02 1019.29 1019.57 1019.86 1020.18 1020.49 1020.77 1021.00 1021.15 1021.21 1021.19 1021.10 1020.97 1020.81 1020.65 1020.51 1020.39 1020.30 1020.24 1020.20 1020.18 1020.20 1020.25 1020.35 1020.48 1020.65 1020.83 1021.02 1021.20 1021.35 1021.46 1021.53 1021.58 1021.60
1015.19 1015.54 1015.99 1016.50 1017.02 1017.51 1017.95 1018.33 1018.65 1018.93 1019.21 1019.50 1019.82 1020.15 1020.48 1020.78 1021.03 1021.19 1021.26 1021.24 1021.14 1020.98 1020.79 1020.58 1020.38 1020.20 1020.03 1019.90 1019.79 1019.72 1019.70 1019.73 1019.83 1019.97 1020.17 1020.39 1020.62 1020.83 1021.01 1021.13 1021.20 1021.23 1021.24
1015.17 1015.54 1015.98 1016.47 1016.97 1017.43 1017.85 1018.22 1018.54 1018.83 1019.12 1019.42 1019.75 1020.09 1020.42 1020.72 1020.96 1021.12 1021.19 1021.17 1021.06 1020.89 1020.68 1020.45 1020.21 1019.98 1019.77 1019.58 1019.42 1019.31 1019.25 1019.26 1019.35 1019.52 1019.74 1019.99 1020.26 1020.51 1020.71 1020.85 1020.92 1020.94 1020.92
1015.16 1015.54 1015.98 1016.45 1016.91 1017.35 1017.75 1018.10 1018.41 1018.71 1019.01 1019.31 1019.64 1019.97 1020.29 1020.58 1020.80 1020.94 1021.00 1020.97 1020.87 1020.71 1020.50 1020.28 1020.04 1019.79 1019.56 1019.34 1019.15 1019.00 1018.92 1018.91 1019.00 1019.16 1019.39 1019.68 1019.97 1020.24 1020.46 1020.61 1020.68 1020.68 1020.64
1015.13 1015.54 1015.98 1016.43 1016.87 1017.28 1017.65 1017.99 1018.30 1018.59 1018.89 1019.19 1019.50 1019.82 1020.11 1020.36 1020.56 1020.68 1020.73 1020.70 1020.61 1020.48 1020.31 1020.12 1019.91 1019.69 1019.47 1019.25 1019.04 1018.88 1018.77 1018.74 1018.80 1018.95 1019.18 1019.46 1019.76 1020.03 1020.26 1020.40 1020.46 1020.44 1020.37
1015.10 1015.54 1015.99 1016.43 1016.85 1017.23 1017.59 1017.91 1018.21 1018.50 1018.79 1019.09 1019.38 1019.67 1019.93 1020.14 1020.30 1020.40 1020.44 1020.42 1020.37 1020.28 1020.17 1020.04 1019.89 1019.72 1019.54 1019.34 1019.14 1018.97 1018.84 1018.78 1018.80 1018.91 1019.11 1019.36 1019.63 1019.89 1020.09 1020.21 1020.25 1020.20 1020.10
1015.09 1015.56 1016.03 1016.46 1016.87 1017.25 1017.59 1017.90 1018.20 1018.49 1018.78 1019.06 1019.34 1019.59 1019.82 1019.99 1020.12 1020.20 1020.23 1020.23 1020.21 1020.18 1020.14 1020.09 1020.03 1019.93 1019.80 1019.64 1019.46 1019.28 1019.12 1019.02 1018.99 1019.04 1019.18 1019.37 1019.58 1019.79 1019.94 1020.03 1020.03 1019.95 1019.81
1015.13 1015.64 1016.12 1016.57 1016.98 1017.35 1017.69 1018.01 1018.31 1018.61 1018.89 1019.17 1019.43 1019.66 1019.85 1019.99 1020.09 1020.15 1020.18 1020.20 1020.22 1020.25 1020.28 1020.32 1020.33 1020.31 1020.24 1020.12 1019.96 1019.77 1019.58 1019.43 1019.33 1019.31 1019.35 1019.46 1019.59 1019.73 1019.82 1019.85 1019.81 1019.69 1019.52
1015.25 1015.79 1016.29 1016.76 1017.18 1017.57 1017.92 1018.25 1018.57 1018.87 1019.16 1019.44 1019.69 1019.90 1020.07 1020.19 1020.27 1020.32 1020.35 1020.39 1020.44 1020.51 1020.61 1020.71 1020.79 1020.83 1020.81 1020.73 1020.58 1020.38 1020.16 1019.95 1019.78 1019.67 1019.61 1019.62 1019.66 1019.70 1019.72 1019.69 1019.60 1019.45 1019.26
1015.47 1016.04 1016.56 1017.05 1017.49 1017.90 1018.28 1018.63 1018.97 1019.29 1019.60 1019.88 1020.14 1020.35 1020.50 1020.61 1020.68 1020.72 1020.75 1020.80 1020.87 1020.97 1021.10 1021.25 1021.37 1021.45 1021.47 1021.41 1021.27 1021.05 1020.80 1020.53 1020.29 1020.08 1019.93 1019.84 1019.77 1019.73 1019.67 1019.58 1019.44 1019.26 1019.04
1015.81 1016.39 1016.94 1017.45 1017.92 1018.35 1018.76 1019.14 1019.50 1019.85 1020.18 1020.48 1020.75 1020.97 1021.13 1021.24 1021.30 1021.34 1021.37 1021.42 1021.49 1021.61 1021.75 1021.90 1022.04 1022.14 1022.17 1022.11 1021.96 1021.73 1021.45 1021.14 1020.82 1020.54 1020.30 1020.10 1019.95 1019.82 1019.68 1019.53 1019.35 1019.14 1018.91
1016.26 1016.87 1017.44 1017.97 1018.46 1018.92 1019.34 1019.75 1020.14 1020.51 1020.86 1021.19 1021.48 1021.72 1021.90 1022.02 1022.10 1022.14 1022.17 1022.21 1022.28 1022.38 1022.50 1022.64 1022.76 1022.85 1022.86 1022.79 1022.63 1022.39 1022.08 1021.72 1021.36 1021.02 1020.70 1020.43 1020.19 1019.98 1019.78 1019.57 1019.35 1019.11 1018.86
1016.84 1017.46 1018.04 1018.59 1019.10 1019.57 1020.01 1020.43 1020.84 1021.23 1021.61 1021.96 1022.28 1022.55 1022.76 1022.91 1023.00 1023.06 1023.09 1023.13 1023.17 1023.24 1023.33 1023.43 1023.51 1023.56 1023.54 1023.45 1023.27 1023.01 1022.67 1022.30 1021.90 1021.51 1021.14 1020.80 1020.50 1020.22 1019.97 1019.71 1019.45 1019.18 1018.91
1017.53 1018.16 1018.76 1019.32 1019.83 1020.30 1020.75 1021.17 1021.58 1021.99 1022.38 1022.75 1023.10 1023.40 1023.65 1023.83 1023.96 1024.04 1024.08 1024.11 1024.13 1024.16 1024.20 1024.24 1024.27 1024.26 1024.21 1024.08 1023.87 1023.59 1023.24 1022.84 1022.42 1022.00 1021.60 1021.22 1020.86 1020.53 1020.22 1019.92 1019.61 1019.31 1019.01
1018.32 1018.97 1019.57 1020.13 1020.64 1021.10 1021.53 1021.94 1022.34 1022.74 1023.14 1023.53 1023.90 1024.24 1024.53 1024.75 1024.92 1025.02 1025.08 1025.10 1025.10 1025.09 1025.08 1025.06 1025.02 1024.96 1024.84 1024.67 1024.43 1024.13 1023.77 1023.36 1022.93 1022.49 1022.06 1021.64 1021.25 1020.88 1020.52 1020.17 1019.82 1019.47 1019.12
1019.18 1019.85 1020.46 1021.01 1021.49 1021.93 1022.33 1022.71 1023.09 1023.48 1023.88 1024.28 1024.67 1025.03 1025.36 1025.62 1025.82 1025.96 1026.03 1026.05 1026.04 1026.00 1025.93 1025.85 1025.75 1025.62 1025.45 1025.23 1024.96 1024.63 1024.25 1023.84 1023.39 1022.94 1022.49 1022.05 1021.62 1021.21 1020.80 1020.40 1020.01 1019.61 1019.22
Thickness
5737 5736 5736 5735 5734 5733 5732 5730 5729 5728 5727 5726 5726 5725 5723 5722 5721 5720 5719 5719 5718 5717 5716 5715 5714 5713 5712 5711 5710 5709 5708 5707 5706 5706 5705 5704 5704 5703 5702 5701 5701 5700 5699
5736 5736 5734 5733 5733 5732 5731 5730 5729 5728 5726 5725 5725 5724 5722 5721 5721 5719 5719 5718 5717 5716 5715 5714 5713 5712 5711 5710 5709 5708 5707 5706 5705 5704 5704 5703 5702 5701 5700 5700 5699 5698 5697
5735 5735 5734 5733 5732 5731 5730 5729 5728 5727 5725 5724 5724 5723 5722 5721 5720 5719 5718 5717 5717 5716 5715 5714 5712 5711 5710 5709 5708 5707 5706 5705 5704 5703 5702 5701 5700 5699 5699 5698 5697 5697 5696
5735 5734 5733 5732 5732 5731 5730 5729 5727 5725 5724 5723 5722 5722 5721 5720 5719 5719 5718 5717 5717 5716 5715 5713 5712 5711 5710 5709 5708 5707 5705 5704 5703 5702 5701 5700 5699 5698 5697 5697 5696 5695 5695
5734 5734 5733 5732 5731 5730 5729 5729 5726 5725 5723 5722 5721 5721 5720 5720 5719 5719 5718 5717 5717 5716 5715 5714 5713 5711 5710 5709 5708 5707 5705 5704 5703 5702 5701 5700 5699 5698 5697 5696 5695 5694 5693
5733 5733 5732 5731 5730 5729 5728 5728 5726 5724 5723 5722 5721 5719 5719 5719 5719 5718 5718 5717 5717 5716 5715 5714 5713 5712 5711 5710 5708 5707 5706 5704 5703 5702 5701 5700 5699 5698 5697 5696 5695 5694 5693
5732 5732 5731 5730 5730 5729 5728 5727 5725 5723 5721 5721 5718 5716 5716 5718 5718 5718 5718 5717 5717 5716 5715 5714 5714 5713 5711 5710 5709 5708 5707 5706 5704 5703 5702 5701 5699 5698 5697 5696 5695 5694 5692
5731 5731 5731 5730 5729 5727 5726 5726 5725 5722 5721 5720 5718 5713 5710 5712 5716 5719 5718 5718 5718 5717 5716 5716 5714 5714 5712 5711 5711 5710 5708 5707 5706 5705 5703 5702 5700 5699 5697 5696 5695 5693 5692
5730 5730 5730 5729 5728 5727 5726 5725 5725 5723 5719 5719 5719 5716 5709 5707 5711 5716 5718 5719 5719 5718 5717 5716 5716 5715 5714 5713 5712 5711 5710 5709 5708 5706 5705 5703 5701 5700 5698 5697 5696 5694 5693
5728 5729 5728 5728 5727 5727 5726 5725 5725 5724 5722 5718 5717 5718 5717 5715 5711 5710 5715 5717 5718 5718 5718 5718 5717 5716 5715 5714 5713 5712 5711 5710 5709 5707 5706 5705 5703 5701 5699 5698 5697 5695 5694
5726 5726 5727 5727 5726 5726 5725 5724 5724 5724 5723 5720 5718 5717 5715 5714 5714 5711 5709 5712 5716 5718 5718 5717 5717 5716 5715 5714 5713 5713 5712 5711 5710 5708 5706 5705 5703 5702 5700 5699 5697 5696 5695
5724 5724 5725 5725 5725 5724 5724 5723 5723 5723 5722 5721 5720 5719 5717 5714 5712 5711 5708 5708 5710 5713 5715 5716 5716 5716 5715 5714 5714 5713 5712 5711 5709 5708 5706 5704 5703 5702 5700 5699 5697 5696 5694
5721 5722 5724 5723 5723 5723 5722 5721 5720 5720 5720 5719 5718 5717 5717 5716 5715 5712 5709 5706 5706 5708 5710 5713 5713 5713 5713 5713 5712 5712 5710 5709 5708 5707 5705 5703 5702 5700 5699 5697 5696 5694 5693
5722 5722 5722 5722 5721 5721 5720 5719 5718 5718 5717 5717 5716 5715 5714 5713 5713 5711 5709 5705 5701 5701 5703 5706 5708 5709 5709 5709 5708 5708 5707 5706 5705 5704 5703 5701 5699 5698 5696 5695 5693 5692 5690
5721 5720 5720 5719 5718 5718 5717 5716 5714 5714 5714 5713 5712 5711 5710 5709 5709 5708 5707 5705 5701 5696 5695 5698 5700 5702 5703 5703 5703 5703 5702 5701 5700 5699 5698 5696 5695 5693 5691 5690 5689 5687 5686
5718 5717 5716 5715 5715 5714 5713 5712 5711 5710 5709 5708 5707 5706 5705 5704 5703 5703 5702 5701 5700 5697 5692 5692 5693 5694 5695 5696 5695 5695 5694 5694 5693 5692 5691 5690 5688 5687 5685 5684 5682 5681 5680
5716 5714 5713 5712 5711 5710 5709 5708 5706 5705 5704 5702 5701 5700 5698 5698 5696 5696 5695 5694 5693 5692 5687 5686 5686 5686 5686 5686 5686 5686 5685 5684 5683 5682 5682 5680 5679 5678 5677 5675 5674 5673 5673
5713 5712 5710 5708 5707 5706 5705 5703 5701 5700 5698 5696 5694 5693 5691 5690 5689 5688 5687 5686 5684 5684 5682 5678 5677 5677 5676 5675 5675 5675 5674 5673 5672 5671 5670 5669 5668 5667 5666 5665 5664 5663 5663
5710 5708 5706 5704 5702 5701 5700 5698 5696 5693 5691 5688 5686 5684 5682 5681 5679 5678 5677 5676 5675 5675 5673 5670 5667 5665 5665 5664 5663 5663 5662 5660 5660 5659 5657 5656 5655 5654 5653 5652 5652 5651 5651
5705 5703 5701 5699 5698 5697 5695 5692 5689 5686 5682 5680 5677 5675 5673 5672 5669 5668 5666 5665 5664 5663 5661 5658 5655 5653 5652 5650 5649 5648 5647 5646 5645 5644 5643 5642 5641 5640 5639 5639 5638 5637 5637
5700 5698 5695 5693 5692 5690 5688 5685 5682 5678 5674 5670 5667 5665 5663 5662 5660 5658 5656 5653 5652 5650 5647 5645 5642 5640 5637 5636 5634 5632 5632 5631 5630 5628 5627 5627 5626 5625 5624 5623 5622 5621 5621
5693 5691 5689 5687 5684 5683 5681 5678 5674 5669 5665 5661 5657 5654 5651 5649 5647 5646 5644 5641 5639 5637 5634 5631 5627 5624 5621 5619 5618 5618 5617 5617 5616 5613 5611 5611 5610 5608 5606 5606 5604 5604 5603
5686 5684 5681 5679 5676 5672 5671 5669 5665 5660 5655 5650 5646 5643 5641 5637 5635 5632 5630 5627 5625 5622 5620 5616 5612 5608 5606 5604 5603 5602 5600 5598 5597 5596 5595 5596 5593 5591 5589 5587 5586 5585 5584
5678 5675 5672 5669 5666 5662 5660 5657 5654 5649 5644 5638 5635 5631 5628 5625 5623 5619 5617 5613 5609 5606 5603 5601 5597 5593 5590 5588 5587 5585 5582 5581 5579 5578 5576 5576 5576 5574 5572 5569 5567 5565 5563
5669 5665 5662 5658 5655 5650 5649 5646 5643 5638 5632 5626 5622 5619 5615 5612 5609 5607 5604 5599 5594 5589 5586 5584 5581 5577 5574 5572 5569 5568 5566 5564 5563 5561 5556 5554 5555 5554 5554 5551 5547 5544 5542
5659 5655 5650 5647 5644 5640 5637 5635 5632 5627 5620 5614 5609 5605 5602 5599 5595 5592 5588 5584 5578 5573 5569 5567 5563 5560 5556 5553 5550 5546 5544 5542 5540 5539 5536 5532 5532 5530 5534 5533 5527 5523 5522